Regional Weather Roundup
Issued by NWS

Home | Current Version | Previous Version | Graphics & Text | Print | Product List | Glossary On
Versions: 1 2 3 4 5 6 7 8 9 10 11 12 13 14 15 16 17 18 19 20 21 22 23 24 25 26 27 28 29 30 31 32 33 34 35 36 37 38 39 40 41 42 43 44 45 46 47 48 49 50
000
ASUS43 KDMX 240708
RWRIA

WEATHER ROUNDUP FOR IOWA
NATIONAL WEATHER SERVICE DES MOINES IA
200 AM CDT WED AUG 24 2016

NOTE: "FAIR" INDICATES FEW OR NO CLOUDS BELOW 12,000 FEET WITH NO
SIGNIFICANT WEATHER AND/OR OBSTRUCTIONS TO VISIBILITY.

* - THESE STATIONS ARE NOT NWS STATIONS...THUS NOT UNDER NWS
QUALITY CONTROL.  THEY ALSO DO NOT REPORT WEATHER SUCH
AS PRECIPITATION OR FOG.

IAZ001>003-012>014-020>022-031>034-043>046-240800-
   NORTHWEST IOWA

CITY           SKY/WX    TMP DP  RH WIND       PRES   REMARKS
CARROLL *      CLOUDY    73  73 100 E7        29.84F FOG
CHEROKEE *     CLOUDY    68  65  91 S5        29.84R
DENISON *      CLOUDY    68  64  88 S7        29.87R
LE MARS *      CLOUDY    70  64  83 S7        29.83R
ORANGE CITY *  MOCLDY    66  64  94 S3        29.83R
SHELDON *      CLOUDY    66  66 100 CALM      29.81S
SIOUX CITY     CLOUDY    70  64  81 S9        29.84R
SPENCER        CLOUDY    68  65  90 SW3       29.83S
STORM LAKE *   CLOUDY    66  64  94 SE6       29.87R
$$

IAZ055>058-069>071-079>083-090>094-240800-
   SOUTHWEST IOWA

CITY           SKY/WX    TMP DP  RH WIND       PRES   REMARKS
ATLANTIC *     LGT RAIN  66  66 100 SW15      29.91R
AUDUBON *      LGT RAIN  70  66  88 CALM      29.88R
CLARINDA *       N/A     66  66 100 MISG      29.93F
COUNCIL BLFS * CLOUDY    66  64  94 S12       29.90R
CRESTON *      LGT RAIN  66  66 100 W13G20    29.93R
HARLAN  *      CLOUDY    68  66  94 SW10G20   29.92R
LAMONI         LGT RAIN  74  73  97 W14G20    29.93
RED OAK *      CLOUDY    66  64  94 SW12      29.93R
SHENANDOAH *   CLOUDY    66 N/A N/A SW16G24   29.94R
$$

IAZ047>049-059>061-072>074-084-240800-
   CENTRAL IOWA

CITY           SKY/WX    TMP DP  RH WIND       PRES   REMARKS
AMES           LGT RAIN  75  75 100 S9        29.86F
ANKENY *         N/A    N/A N/A N/A MISG        N/A
BOONE *        CLOUDY    75  73  94 S8        29.86R
CHARITON *       N/A     77  72  83 MISG      29.90R
DES MOINES     TSTM      78  73  84 S10       29.87R HX  81
GRINNELL*      CLOUDY    74  71  88 SE9       29.92S
KNOXVILLE *    CLOUDY    75  72  88 S13       29.88R
MARSHALLTOWN   CLOUDY    75  73  93 S13       29.88F
NEWTON *       CLOUDY    75  73  94 SE7       29.90R
PELLA *        CLOUDY    74  72  91 SE8       29.91S
PERRY *        RAIN      75  75  98 SE8       29.86R
$$

IAZ004>006-015-016-023>025-035-036-240800-
   NORTH CENTRAL IOWA

CITY           SKY/WX    TMP DP  RH WIND       PRES   REMARKS
ALGONA *       CLOUDY    73  73 100 S8        29.84S FOG
ESTHERVILLE    CLOUDY    69  69 100 S3        29.82F FOG
FORT DODGE *   CLOUDY    75  72  88 S9        29.84F
MASON CITY     CLOUDY    72  70  93 S3        29.88F
FOREST CITY *    N/A    N/A N/A N/A MISG        N/A
WEBSTER CITY * CLOUDY    75  73  94 S10       29.83F
IOWA FALLS *     N/A     75  72  89 S10       29.88S
$$

IAZ007>011-017>019-026>030-037>042-050>054-066-240800-
   NORTHEAST IOWA

CITY           SKY/WX    TMP DP  RH WIND       PRES   REMARKS
CEDAR RAPIDS   CLOUDY    73  72  96 S12       29.93F
CHARLES CITY * CLOUDY    70  70 100 E10       29.89F
CLINTON *      CLOUDY    71  68  90 S10       30.00F
DECORAH *      HVY RAIN  64  64 100 E7        29.91F
DUBUQUE        CLOUDY    71  68  90 S18G25    29.97S
MONTICELLO *   CLOUDY    72  70  94 S12       29.95F
OELWEIN *      CLOUDY    73  72  94 S18G24    29.91F
WATERLOO       CLOUDY    74  70  87 S14       29.87F
$$

IAZ064-065-067-068-078-240800-
   EAST CENTRAL IOWA

CITY           SKY/WX    TMP DP  RH WIND       PRES   REMARKS
DAVENPORT      CLOUDY    72  68  87 S14G20    29.99F
IOWA CITY      CLOUDY    73  70  90 S9        29.97S
MT. PLEASANT * LGT RAIN  75  74  99 S7G16     29.97S
MUSCATINE *    CLOUDY    73  70  88 S10       29.97S
QUAD CITIES    CLOUDY    73  68  84 S13       29.99S
$$

IAZ062-063-075>077-085>089-095>099-240800-
   SOUTHEAST IOWA

CITY           SKY/WX    TMP DP  RH WIND       PRES   REMARKS
BURLINGTON     CLOUDY    72  71  97 S13       29.98S
FAIRFIELD *    CLOUDY    75  70  83 S10       29.95R
FORT MADISON * CLOUDY    72  72 100 S6        29.99S
KEOKUK *       CLOUDY    75  72  88 S8        29.97S
OSKALOOSA *    CLOUDY    74  71  92 S13       29.93R
CENTERVILLE *    N/A     75  72  88 S14       29.94R
OTTUMWA        CLOUDY    75  71  87 S12       29.92S
WASHINGTON *   CLOUDY    73  72  94 S9G17     29.96S
$$

ABBREVIATIONS USED IN REMARKS
   TC - TEMPERATURES IN CELSIUS
  WCI - WIND CHILL INDEX
   HX - HEAT INDEX
  VSB - VISIBILITY
$$





USA.gov is the U.S. government's official web portal to all federal, state and local government web resources and services.